Location: Balmoral
(33.0667°S, 151.5833°E)
Time: 00:51:47
(UTC+00:00)

SL-24 R/B - Pass Details

Date: 18 September 2020
Orbit: 617 x 1345 km, 98.0° (Epoch: 21 October)

Event Time Altitude Azimuth Distance (km) Brightness Sun altitude
Rises 17:47:08 0° 168° (SSE) 3,360 8.2 -25.7°
Reaches altitude 10° 17:49:38 10° 167° (SSE) 2,323 7.3 -25.2°
Maximum altitude 17:54:39 84° 80° (E) 699 4.2 -24.2°
Enters shadow 17:55:42 53° 356° (N) 827 4.5 -24.0°
